Погода в Ленгере

Казахстан     42°10′55″N   69°52′55″E
темп.,
°C
ветер,
м/с
пор.,
м/с
влажн.,
%
обл.,
%
осадки,
мм/ч
давл.,
гПа
погр.,
м
2 марта, вт
вт200:00+4ююв45450 0.0 102033
03:00+4ююв55470 0.0 102041
06:00+4ю45480 0.0 102149
09:00+4ююз585648 0.0 1022126
12:00+6юз4107733 0.0 1022331
15:00+8зюз6106463 0.0 1021529
18:00+5зсз357681 0.0 1022110
21:00+2юз017693 0.0 102422
3 марта, ср
ср300:00+2зюз017288 0.0 102423
03:00+1зюз0178100 0.0 102425
06:00+1сз1293100 0.3 102465
09:00+1ссз1197100 0.0 102567
12:00+3сз129299 0.3 1024243
15:00+4сз1293100 0.3 1023257
18:00+4ссз0192100 0.6 102272
21:00+2ююз1198100 1.7 102341
4 марта, чт
чт400:00+2ююз239899 3.4 1022147
03:00+2ююз338087 0.1 102244
06:00+2ю127644 0.1 102223
09:00+3ююв226633 0.0 102226
12:00+8зюз255667 0.0 1020499
15:00+12юз693699 0.0 10171947
18:00+10ю4853100 0.0 1016275
21:00+6ююз356098 0.1 1017126
5 марта, пт
пт500:00+3зюз9159899 12.9 1022899
03:000з71099100 10.2 1026535
06:00−2з3497100 11.4 1030267
09:00−2сз1293100 0.1 1033203
12:000ссз218899 0.1 1032356
15:00+2ссв337980 0.0 1029549
18:00+2св357947 0.0 1026308
21:000вюв22580 0.0 102628
6 марта, сб
сб600:00+1вюв22400 0.0 102423
03:00+2вюв223644 0.0 102023
06:00+3вюв233872 0.0 101822
09:00+4вюв2239100 0.0 101522
12:00+10ююв1149100 0.0 101279
15:00+11з1143100 0.0 1011293
18:00+7зюз3465100 0.0 1012104
21:00+4ю1169100 0.0 101422